Weather in Bolshoye Kuzminskoye

Russia / Vladimir Oblast     56°24′59″N   39°31′53″E
temp.,
°C
wind,
m/s
gust,
m/s
humid.,
%
clouds,
%
prec.,
mm/h
press.,
hPa
HPBL,
m
3 march, wed
wed300:00−3nnw6128999 0.2 1009693
03:00−7nw6139062 0.2 1011367
06:00−8nw6139352 0.0 1012394
09:00−7nw6139168 0.0 1013487
12:00−3wnw7119183 0.1 1012730
15:00−1wnw7118891 0.2 10111072
18:00−2w61391100 0.1 1009622
21:00−2w6139399 0.3 1008825
4 march, thu
thu400:00−2wsw61391100 0.1 1005656
03:00−1wsw71490100 0.3 1002762
06:000w91497100 1.0 999861
09:00−2wnw61289100 2.6 999827
12:00−2nw6981100 0.0 999812
15:00−2wnw4785100 0.0 1000644
18:00−5nnw3493100 0.0 100075
21:00−7nnw3391100 0.0 100145
5 march, fri
fri500:00−9n3394100 0.0 100266
03:00−11n3394100 0.0 100455
06:00−14nnw339734 0.0 100533
09:00−12nnw239627 0.0 100797
12:00−8nw238846 0.0 1008306
15:00−6wnw238474 0.1 1009576
18:00−9wsw129098 0.1 101021
21:00−9w229581 0.1 101121
6 march, sat
sat600:00−11nw349387 0.3 101343
03:00−13nnw469769 0.3 1014119
06:00−16nnw479122 0.0 1015115
09:00−15nw369011 0.0 1016187
12:00−11nw34800 0.0 1016336
15:00−8w36760 0.0 1015776
18:00−11wsw34840 0.0 101341
21:00−12sw479416 0.0 1012141
7 march, sun
sun700:00−12ssw5119327 0.0 1010205
03:00−10ssw7148963 0.0 1006479
06:00−8ssw81590100 0.2 1001852
09:00−6ssw91590100 0.6 9961027
12:00−4sw101692100 0.6 9911096
15:00−2sw101792100 1.6 9881307
18:00−7w71481100 3.2 9901058
21:00−9sw6158750 3.2 991460